When you browse on this site, cookies collect data to enhance your experience and personalize the content and advertising you see.
Visit our Privacy Policy to learn more. By continuing to use the site, you agree to this use of cookies and data.
  • In United Kingdom
  • List of Countries
  • For 7 days
  • Water Temperature
  • Weather Map
  • Weather Widgets
  • user-avatar
    Login

    Hourly Weather Narkevychi

    Today, 21 October, Monday

    Time Temperature Precipitation Wind Pressure Humidity
    00:00 +13°C° 0 mm 3 mps 737 mmHg 73%
    01:00 +13°C° 0 mm 3 mps 737 mmHg 75%
    02:00 +12°C° 0 mm 3 mps 737 mmHg 77%
    03:00 +12°C° 0 mm 3 mps 737 mmHg 78%
    04:00 +12°C° 0 mm 3 mps 737 mmHg 78%
    05:00 +11°C° 0 mm 3 mps 737 mmHg 79%
    06:00 +12°C° 0 mm 3 mps 737 mmHg 77%
    07:00 +12°C° 0 mm 3 mps 738 mmHg 76%
    08:00 +12°C° 0 mm 3 mps 738 mmHg 73%
    09:00 +16°C° 0 mm 3 mps 738 mmHg 66%
    10:00 +18°C° 0 mm 3 mps 738 mmHg 59%
    11:00 +20°C° 0 mm 3 mps 738 mmHg 52%
    12:00 +21°C° 0 mm 3 mps 738 mmHg 49%
    13:00 +22°C° 0 mm 3 mps 738 mmHg 46%
    14:00 +22°C° 0 mm 3 mps 738 mmHg 45%
    15:00 +21°C° 0 mm 2 mps 738 mmHg 49%
    16:00 +20°C° 0 mm 2 mps 738 mmHg 54%
    17:00 +18°C° 0 mm 2 mps 738 mmHg 58%
    18:00 +18°C° 0 mm 2 mps 738 mmHg 60%
    19:00 +17°C° 0 mm 2 mps 738 mmHg 62%
    20:00 +16°C° 0 mm 2 mps 738 mmHg 64%
    21:00 +16°C° 0 mm 2 mps 738 mmHg 66%
    22:00 +15°C° 0 mm 2 mps 738 mmHg 67%
    23:00 +15°C° 0 mm 2 mps 738 mmHg 69%

    Tomorrow, 22 October, Tuesday

    Time Temperature Precipitation Wind Pressure Humidity
    00:00 +15°C° 0 mm 2 mps 738 mmHg 70%
    01:00 +14°C° 0 mm 1 mps 739 mmHg 71%
    02:00 +14°C° 0 mm 1 mps 739 mmHg 72%
    03:00 +14°C° 0 mm 1 mps 739 mmHg 73%
    04:00 +14°C° 0 mm 1 mps 739 mmHg 75%
    05:00 +13°C° 0 mm 1 mps 739 mmHg 76%
    06:00 +14°C° 0 mm 1 mps 739 mmHg 75%
    07:00 +14°C° 0 mm 1 mps 739 mmHg 74%
    08:00 +15°C° 0 mm 1 mps 740 mmHg 72%
    09:00 +18°C° 0 mm 1 mps 740 mmHg 65%
    10:00 +20°C° 0 mm 1 mps 740 mmHg 58%
    11:00 +22°C° 0 mm 1 mps 740 mmHg 51%
    12:00 +23°C° 0 mm 1 mps 740 mmHg 49%
    13:00 +23°C° 0 mm 1 mps 740 mmHg 46%
    14:00 +24°C° 0 mm 2 mps 740 mmHg 44%
    15:00 +23°C° 0 mm 1 mps 739 mmHg 48%
    16:00 +21°C° 0 mm 1 mps 739 mmHg 52%
    17:00 +20°C° 0 mm 1 mps 739 mmHg 57%
    18:00 +19°C° 0 mm 1 mps 739 mmHg 59%
    19:00 +18°C° 0 mm 1 mps 739 mmHg 62%
    20:00 +18°C° 0 mm 1 mps 739 mmHg 65%
    21:00 +16°C° 0 mm 2 mps 739 mmHg 66%
    22:00 +16°C° 0 mm 2 mps 739 mmHg 68%
    23:00 +15°C° 0 mm 2 mps 739 mmHg 69%

    Day after tomorrow, 23 October, Wednesday

    Time Temperature Precipitation Wind Pressure Humidity
    00:00 +15°C° 0 mm 2 mps 739 mmHg 70%
    01:00 +14°C° 0 mm 2 mps 739 mmHg 71%
    02:00 +14°C° 0 mm 2 mps 739 mmHg 72%
    03:00 +14°C° 0 mm 2 mps 738 mmHg 74%
    04:00 +13°C° 0 mm 2 mps 738 mmHg 75%
    05:00 +13°C° 0 mm 2 mps 738 mmHg 77%
    06:00 +13°C° 0 mm 2 mps 738 mmHg 77%
    07:00 +14°C° 0 mm 2 mps 738 mmHg 76%
    08:00 +14°C° 0 mm 2 mps 738 mmHg 76%
    09:00 +16°C° 0 mm 2 mps 738 mmHg 69%
    10:00 +18°C° 0 mm 2 mps 738 mmHg 62%
    11:00 +20°C° 0 mm 2 mps 738 mmHg 55%
    12:00 +21°C° 0 mm 2 mps 738 mmHg 55%
    13:00 +21°C° 0 mm 2 mps 738 mmHg 54%
    14:00 +21°C° 0 mm 2 mps 738 mmHg 54%
    15:00 +20°C° 0 mm 2 mps 738 mmHg 59%
    16:00 +19°C° 0 mm 2 mps 737 mmHg 64%
    17:00 +19°C° 0 mm 1 mps 737 mmHg 69%
    18:00 +18°C° 0 mm 1 mps 737 mmHg 73%
    19:00 +16°C° 0 mm 1 mps 737 mmHg 77%
    20:00 +14°C° 0 mm 0 mps 738 mmHg 81%
    21:00 +14°C° 0 mm 0 mps 738 mmHg 83%
    22:00 +15°C° 0 mm 1 mps 738 mmHg 85%
    23:00 +14°C° 0 mm 1 mps 738 mmHg 86%

    24 October, Thursday

    Time Temperature Precipitation Wind Pressure Humidity
    00:00 +14°C° 0 mm 1 mps 737 mmHg 88%
    01:00 +14°C° 0 mm 1 mps 737 mmHg 89%
    02:00 +14°C° 0 mm 1 mps 737 mmHg 90%
    03:00 +13°C° 0 mm 1 mps 737 mmHg 91%
    04:00 +13°C° 0 mm 1 mps 737 mmHg 91%
    05:00 +13°C° 0 mm 1 mps 737 mmHg 91%
    06:00 +13°C° 0 mm 1 mps 737 mmHg 90%
    07:00 +13°C° 0 mm 2 mps 737 mmHg 89%
    08:00 +14°C° 0 mm 2 mps 737 mmHg 88%
    09:00 +16°C° 0 mm 2 mps 737 mmHg 79%
    10:00 +18°C° 0 mm 2 mps 737 mmHg 70%
    11:00 +20°C° 0 mm 3 mps 737 mmHg 61%
    12:00 +21°C° 0 mm 3 mps 737 mmHg 57%
    13:00 +22°C° 0 mm 3 mps 737 mmHg 53%
    14:00 +22°C° 0 mm 3 mps 737 mmHg 49%
    15:00 +21°C° 0 mm 3 mps 736 mmHg 53%
    16:00 +20°C° 0 mm 3 mps 736 mmHg 57%
    17:00 +18°C° 0 mm 2 mps 736 mmHg 61%
    18:00 +17°C° 0 mm 2 mps 736 mmHg 64%
    19:00 +16°C° 0 mm 3 mps 736 mmHg 66%
    20:00 +14°C° 0 mm 3 mps 736 mmHg 68%
    21:00 +14°C° 0 mm 3 mps 736 mmHg 69%
    22:00 +14°C° 0 mm 3 mps 736 mmHg 70%
    23:00 +13°C° 0 mm 3 mps 736 mmHg 71%

    25 October, Friday

    Time Temperature Precipitation Wind Pressure Humidity
    00:00 +13°C° 0 mm 3 mps 736 mmHg 72%
    01:00 +12°C° 0 mm 3 mps 736 mmHg 73%
    02:00 +12°C° 0 mm 3 mps 736 mmHg 74%
    03:00 +12°C° 0 mm 3 mps 736 mmHg 74%
    04:00 +11°C° 0 mm 3 mps 736 mmHg 73%
    05:00 +11°C° 0 mm 3 mps 736 mmHg 73%
    06:00 +11°C° 0 mm 3 mps 736 mmHg 72%
    07:00 +12°C° 0 mm 3 mps 736 mmHg 70%
    08:00 +12°C° 0 mm 3 mps 737 mmHg 69%
    09:00 +14°C° 0 mm 3 mps 737 mmHg 61%
    10:00 +17°C° 0 mm 4 mps 737 mmHg 53%
    11:00 +19°C° 0 mm 4 mps 737 mmHg 44%
    12:00 +20°C° 0 mm 4 mps 737 mmHg 42%
    13:00 +21°C° 0 mm 4 mps 737 mmHg 40%
    14:00 +22°C° 0 mm 3 mps 737 mmHg 37%
    15:00 +20°C° 0 mm 3 mps 737 mmHg 41%
    16:00 +19°C° 0 mm 2 mps 737 mmHg 45%
    17:00 +17°C° 0 mm 2 mps 736 mmHg 49%
    18:00 +16°C° 0 mm 2 mps 737 mmHg 51%
    19:00 +15°C° 0 mm 2 mps 737 mmHg 54%
    20:00 +15°C° 0 mm 2 mps 737 mmHg 56%
    21:00 +14°C° 0 mm 1 mps 737 mmHg 58%
    22:00 +14°C° 0 mm 1 mps 737 mmHg 59%
    23:00 +13°C° 0 mm 1 mps 737 mmHg 61%

    26 October, Saturday

    Time Temperature Precipitation Wind Pressure Humidity
    00:00 +13°C° 0 mm 1 mps 737 mmHg 63%
    01:00 +13°C° 0 mm 1 mps 737 mmHg 64%
    02:00 +12°C° 0 mm 1 mps 737 mmHg 66%
    03:00 +12°C° 0 mm 1 mps 737 mmHg 67%
    04:00 +12°C° 0 mm 1 mps 737 mmHg 69%
    05:00 +12°C° 0 mm 1 mps 737 mmHg 70%
    06:00 +12°C° 0 mm 1 mps 737 mmHg 70%
    07:00 +12°C° 0 mm 1 mps 737 mmHg 69%
    08:00 +12°C° 0 mm 1 mps 737 mmHg 68%
    09:00 +14°C° 0 mm 2 mps 737 mmHg 60%
    10:00 +17°C° 0 mm 2 mps 737 mmHg 53%
    11:00 +19°C° 0 mm 2 mps 737 mmHg 45%
    12:00 +20°C° 0 mm 3 mps 737 mmHg 42%
    13:00 +21°C° 0 mm 3 mps 737 mmHg 39%
    14:00 +22°C° 0 mm 3 mps 736 mmHg 37%
    15:00 +20°C° 0 mm 3 mps 736 mmHg 42%
    16:00 +19°C° 0 mm 3 mps 736 mmHg 46%
    17:00 +17°C° 0 mm 2 mps 735 mmHg 51%
    18:00 +16°C° 0 mm 2 mps 735 mmHg 54%
    19:00 +15°C° 0 mm 2 mps 735 mmHg 56%
    20:00 +14°C° 0 mm 3 mps 735 mmHg 59%
    21:00 +13°C° 0 mm 3 mps 735 mmHg 60%
    22:00 +14°C° 0 mm 2 mps 735 mmHg 61%
    23:00 +13°C° 0 mm 2 mps 735 mmHg 62%

    27 October, Sunday

    Time Temperature Precipitation Wind Pressure Humidity
    00:00 +13°C° 0 mm 2 mps 735 mmHg 64%
    01:00 +13°C° 0 mm 2 mps 735 mmHg 65%
    02:00 +12°C° 0 mm 2 mps 735 mmHg 67%
    03:00 +12°C° 0 mm 2 mps 735 mmHg 69%
    04:00 +12°C° 0 mm 2 mps 734 mmHg 70%
    05:00 +12°C° 0 mm 2 mps 734 mmHg 72%
    06:00 +12°C° 0 mm 2 mps 734 mmHg 71%
    07:00 +12°C° 0 mm 2 mps 734 mmHg 71%
    08:00 +12°C° 0 mm 2 mps 734 mmHg 70%
    09:00 +13°C° 0 mm 3 mps 734 mmHg 64%
    10:00 +15°C° 0 mm 5 mps 734 mmHg 57%
    11:00 +17°C° 0 mm 6 mps 734 mmHg 51%
    12:00 +17°C° 0 mm 6 mps 734 mmHg 52%
    13:00 +17°C° 0 mm 6 mps 734 mmHg 53%
    14:00 +19°C° 0 mm 6 mps 734 mmHg 53%
    15:00 +16°C° 0 mm 6 mps 735 mmHg 60%
    16:00 +15°C° 0 mm 5 mps 735 mmHg 68%
    17:00 +14°C° 0 mm 4 mps 735 mmHg 75%
    18:00 +13°C° 0 mm 4 mps 735 mmHg 75%
    19:00 +12°C° 0 mm 4 mps 736 mmHg 76%
    20:00 +11°C° 0 mm 3 mps 736 mmHg 77%
    21:00 +10°C° 0 mm 3 mps 736 mmHg 76%
    22:00 +10°C° 0 mm 3 mps 737 mmHg 76%
    23:00 +10°C° 0 mm 3 mps 737 mmHg 75%
    Show more